Sitka, Alaska, United States (99835)
Lat: 57.05N, Lon: 135.33W
Wx Zone: AKZ023
Local Info
Past Weather Observations for Sunday, April 20, 2014

NOTE: This archive is for the closest National Weather Service station to Sitka. Information may differ from the station used for current weather conditions.

Time Weather Temperature Dewpoint Humidity Pressure Winds Precip Visibility
23:53
Overcast
48°F / 9°C 36°F / 2°C 62% 29.77 in
(1008 mb)
ENE 13.8 mph
(ENE 22 kph)
- 10SM
22:53
Overcast
46°F / 8°C 36°F / 2°C 66% 29.77 in
(1008 mb)
SE 5.8 mph
(SE 9 kph)
- 10SM
21:53
Overcast
46°F / 8°C 36°F / 2°C 66% 29.77 in
(1008 mb)
E 8.1 mph
(E 13 kph)
0.00 in
(0.00 mm)
10SM
20:53
Overcast
46°F / 8°C 36°F / 2°C 66% 29.77 in
(1008 mb)
SE 6.9 mph
(SE 11 kph)
- 10SM
19:53
Overcast
46°F / 8°C 36°F / 2°C 66% 29.77 in
(1008 mb)
SE 11.5 mph
(SE 19 kph)
- 10SM
18:53
Overcast
46°F / 8°C 36°F / 2°C 66% 29.74 in
(1007 mb)
SE 11.5 mph
(SE 19 kph)
- 10SM
17:53
Mostly Cloudy
48°F / 9°C 36°F / 2°C 62% 29.74 in
(1007 mb)
ESE 15 mph
(ESE 24 kph)
- 10SM
16:53
Overcast
50°F / 10°C 34°F / 1°C 54% 29.71 in
(1006 mb)
E 10.4 mph
(E 17 kph)
- 10SM
15:53
Mostly Cloudy
50°F / 10°C 34°F / 1°C 54% 29.74 in
(1007 mb)
ESE 17.3 mph
(ESE 28 kph)
- 10SM
14:53
Overcast
48°F / 9°C 36°F / 2°C 62% 29.74 in
(1007 mb)
SE 13.8 mph
(SE 22 kph)
- 10SM
13:53
Mostly Cloudy
52°F / 11°C 34°F / 1°C 50% 29.74 in
(1007 mb)
ESE 15 mph
(ESE 24 kph)
- 10SM
12:53
Mostly Cloudy
52°F / 11°C 34°F / 1°C 50% 29.74 in
(1007 mb)
ESE 17.3 mph
(ESE 28 kph)
- 10SM
11:53
Mostly Cloudy
52°F / 11°C 34°F / 1°C 50% 29.74 in
(1007 mb)
ESE 15 mph
(ESE 24 kph)
- 10SM
10:53
Overcast
52°F / 11°C 34°F / 1°C 50% 29.77 in
(1008 mb)
SE 11.5 mph
(SE 19 kph)
- 10SM
09:53
Mostly Cloudy
48°F / 9°C 34°F / 1°C 58% 29.77 in
(1008 mb)
SE 17.3 mph
(SE 28 kph)
- 10SM
08:53
Mostly Cloudy
46°F / 8°C 36°F / 2°C 66% 29.77 in
(1008 mb)
SE 16.1 mph
(SE 26 kph)
- 10SM
07:53
Overcast
45°F / 7°C 37°F / 3°C 76% 29.77 in
(1008 mb)
SE 12.7 mph
(SE 20 kph)
- 10SM
06:53
Overcast
45°F / 7°C 37°F / 3°C 76% 29.74 in
(1007 mb)
SE 10.4 mph
(SE 17 kph)
- 10SM
05:53
Overcast
45°F / 7°C 36°F / 2°C 71% 29.71 in
(1006 mb)
SE 12.7 mph
(SE 20 kph)
0.00 in
(0.00 mm)
10SM
04:53
Overcast
Light Rain
45°F / 7°C 37°F / 3°C 76% 29.68 in
(1005 mb)
SE 15 mph
(SE 24 kph)
0.00 in
(0.00 mm)
9SM
03:53
Overcast
Light Rain
45°F / 7°C 37°F / 3°C 76% 29.65 in
(1004 mb)
E 13.8 mph
(E 22 kph)
0.05 in
(1.27 mm)
10SM
03:40
Overcast
Light Rain
45°F / 7°C 39°F / 4°C 81% 29.62 in
(1003 mb)
E 11.5 mph
(E 19 kph)
0.04 in
(1.02 mm)
10SM
02:53
Overcast
Light Rain
45°F / 7°C 39°F / 4°C 81% 29.59 in
(1002 mb)
SE 11.5 mph
(SE 19 kph)
0.01 in
(0.25 mm)
9SM
02:49
Overcast
Light Rain
45°F / 7°C 39°F / 4°C 81% 29.59 in
(1002 mb)
SE 11.5 mph
(SE 19 kph)
0.01 in
(0.25 mm)
9SM
01:53
Overcast
45°F / 7°C 39°F / 4°C 81% 29.56 in
(1001 mb)
SSE 8.1 mph
(SSE 13 kph)
0.01 in
(0.25 mm)
9SM
00:53
Overcast
45°F / 7°C 39°F / 4°C 81% 29.5 in
(999 mb)
SSE 19.6 mph
(SSE 32 kph)
0.00 in
(0.00 mm)
10SM
Time Weather Temperature Dewpoint Humidity Pressure Winds Precip Visibility


Weather for websites

WeatherForYou.com, LLC is not responsible for any damages or problems caused by this service. Current weather conditions are obtained from the closest station including government and personal stations which may have varying degrees of accuracy. Weather forecasts are derived from the NOAA NDFD. Like all things, this site belongs to Jesus Christ... He just trusts me to maintain it. If you have any questions or comments email webmaster@weatherforyou.com

Copyright © 2014, WeatherForYou.com LLC. All rights reserved.